When you browse on this site, cookies collect data to enhance your experience and personalize the content and advertising you see.
Visit our Privacy Policy to learn more. By continuing to use the site, you agree to this use of cookies and data.
  • Em Portugal
  • Lista de países
  • Para 7 dias
  • Temperatura da água
  • Mapa do tempo
  • Widgets de tempo
  • user-avatar
    Iniciar Sessão

    Previsão horária em Lisboa

    Hoje, 19 Janeiro, Domingo

    Tempo Temperatura Precipitação Vento Pressão Humidade
    00:00 +11°C° 0 mm 6 m/s 766 mmHg 75%
    01:00 +11°C° 0 mm 7 m/s 766 mmHg 75%
    02:00 +11°C° 0 mm 7 m/s 766 mmHg 74%
    03:00 +11°C° 0 mm 7 m/s 765 mmHg 76%
    04:00 +10°C° 0 mm 7 m/s 765 mmHg 78%
    05:00 +10°C° 0 mm 8 m/s 764 mmHg 80%
    06:00 +10°C° 0 mm 7 m/s 764 mmHg 80%
    07:00 +10°C° 0 mm 7 m/s 765 mmHg 81%
    08:00 +10°C° 0 mm 7 m/s 765 mmHg 81%
    09:00 +11°C° 0 mm 7 m/s 765 mmHg 73%
    10:00 +12°C° 0 mm 7 m/s 765 mmHg 65%
    11:00 +15°C° 0 mm 7 m/s 765 mmHg 56%
    12:00 +15°C° 0 mm 7 m/s 765 mmHg 56%
    13:00 +15°C° 0 mm 7 m/s 765 mmHg 55%
    14:00 +15°C° 0 mm 7 m/s 764 mmHg 55%
    15:00 +14°C° 0 mm 7 m/s 764 mmHg 54%
    16:00 +12°C° 0 mm 7 m/s 764 mmHg 53%
    17:00 +11°C° 0 mm 7 m/s 765 mmHg 52%
    18:00 +10°C° 0 mm 8 m/s 765 mmHg 48%
    19:00 +8°C° 0 mm 9 m/s 765 mmHg 43%
    20:00 +7°C° 0 mm 9 m/s 766 mmHg 39%
    21:00 +7°C° 0 mm 10 m/s 766 mmHg 39%
    22:00 +6°C° 0 mm 11 m/s 766 mmHg 39%
    23:00 +4°C° 0 mm 12 m/s 766 mmHg 38%

    Amanhã, 20 Janeiro, Segunda-feira

    Tempo Temperatura Precipitação Vento Pressão Humidade
    00:00 +4°C° 0 mm 12 m/s 765 mmHg 42%
    01:00 +3°C° 0 mm 11 m/s 765 mmHg 46%
    02:00 +2°C° 0 mm 10 m/s 764 mmHg 51%
    03:00 +2°C° 0 mm 10 m/s 764 mmHg 51%
    04:00 +2°C° 0 mm 9 m/s 764 mmHg 51%
    05:00 +2°C° 0 mm 9 m/s 764 mmHg 52%
    06:00 +2°C° 0 mm 9 m/s 763 mmHg 51%
    07:00 +2°C° 0 mm 8 m/s 763 mmHg 51%
    08:00 +2°C° 0 mm 8 m/s 763 mmHg 51%
    09:00 +5°C° 0 mm 8 m/s 763 mmHg 49%
    10:00 +6°C° 0 mm 8 m/s 763 mmHg 46%
    11:00 +7°C° 0 mm 8 m/s 762 mmHg 44%
    12:00 +9°C° 0 mm 8 m/s 762 mmHg 44%
    13:00 +9°C° 0 mm 8 m/s 761 mmHg 43%
    14:00 +10°C° 0 mm 8 m/s 760 mmHg 43%
    15:00 +9°C° 0 mm 8 m/s 760 mmHg 45%
    16:00 +8°C° 0 mm 7 m/s 760 mmHg 48%
    17:00 +7°C° 0 mm 6 m/s 760 mmHg 50%
    18:00 +5°C° 0 mm 7 m/s 760 mmHg 51%
    19:00 +5°C° 0 mm 7 m/s 760 mmHg 52%
    20:00 +4°C° 0 mm 7 m/s 760 mmHg 53%
    21:00 +4°C° 0 mm 7 m/s 761 mmHg 54%
    22:00 +4°C° 0 mm 7 m/s 761 mmHg 55%
    23:00 +4°C° 0 mm 7 m/s 761 mmHg 57%

    Depois de amanhã, 21 Janeiro, Terça-feira

    Tempo Temperatura Precipitação Vento Pressão Humidade
    00:00 +3°C° 0 mm 7 m/s 760 mmHg 58%
    01:00 +3°C° 0 mm 7 m/s 760 mmHg 60%
    02:00 +3°C° 0 mm 6 m/s 760 mmHg 61%
    03:00 +3°C° 0 mm 6 m/s 760 mmHg 62%
    04:00 +2°C° 0 mm 6 m/s 759 mmHg 62%
    05:00 +2°C° 0 mm 5 m/s 759 mmHg 63%
    06:00 +2°C° 0 mm 5 m/s 759 mmHg 63%
    07:00 +3°C° 0 mm 5 m/s 759 mmHg 63%
    08:00 +3°C° 0 mm 5 m/s 759 mmHg 64%
    09:00 +5°C° 0 mm 6 m/s 759 mmHg 61%
    10:00 +7°C° 0 mm 6 m/s 759 mmHg 58%
    11:00 +9°C° 0 mm 6 m/s 758 mmHg 55%
    12:00 +10°C° 0 mm 6 m/s 758 mmHg 55%
    13:00 +11°C° 0 mm 6 m/s 757 mmHg 54%
    14:00 +11°C° 0 mm 6 m/s 757 mmHg 54%
    15:00 +10°C° 0 mm 5 m/s 757 mmHg 59%
    16:00 +10°C° 0 mm 4 m/s 757 mmHg 64%
    17:00 +9°C° 0 mm 3 m/s 757 mmHg 68%
    18:00 +8°C° 0 mm 3 m/s 757 mmHg 70%
    19:00 +8°C° 0 mm 3 m/s 757 mmHg 71%
    20:00 +8°C° 0 mm 3 m/s 757 mmHg 72%
    21:00 +8°C° 0 mm 3 m/s 756 mmHg 71%
    22:00 +8°C° 0 mm 3 m/s 756 mmHg 70%
    23:00 +7°C° 0 mm 4 m/s 756 mmHg 69%

    22 Janeiro, Quarta-feira

    Tempo Temperatura Precipitação Vento Pressão Humidade
    00:00 +7°C° 0 mm 4 m/s 756 mmHg 72%
    01:00 +6°C° 0 mm 4 m/s 756 mmHg 75%
    02:00 +6°C° 0 mm 4 m/s 755 mmHg 79%
    03:00 +6°C° 0 mm 4 m/s 755 mmHg 78%
    04:00 +7°C° 0 mm 3 m/s 755 mmHg 77%
    05:00 +8°C° 0 mm 3 m/s 755 mmHg 76%
    06:00 +7°C° 0 mm 4 m/s 755 mmHg 76%
    07:00 +7°C° 0 mm 5 m/s 755 mmHg 76%
    08:00 +8°C° 0 mm 5 m/s 756 mmHg 76%
    09:00 +9°C° 0 mm 6 m/s 756 mmHg 74%
    10:00 +10°C° 0 mm 6 m/s 756 mmHg 72%
    11:00 +11°C° 0 mm 7 m/s 756 mmHg 70%
    12:00 +11°C° 0.2 mm 6 m/s 756 mmHg 71%
    13:00 +11°C° 0.2 mm 6 m/s 756 mmHg 71%
    14:00 +11°C° 0.2 mm 6 m/s 755 mmHg 72%
    15:00 +10°C° 0.1 mm 6 m/s 755 mmHg 75%
    16:00 +9°C° 0.1 mm 5 m/s 755 mmHg 78%
    17:00 +9°C° 0.1 mm 5 m/s 755 mmHg 81%
    18:00 +8°C° 0 mm 5 m/s 756 mmHg 83%
    19:00 +8°C° 0 mm 5 m/s 756 mmHg 84%
    20:00 +7°C° 0 mm 5 m/s 756 mmHg 85%
    21:00 +7°C° 0 mm 5 m/s 756 mmHg 86%
    22:00 +8°C° 0 mm 5 m/s 756 mmHg 86%
    23:00 +8°C° 0 mm 5 m/s 756 mmHg 86%

    23 Janeiro, Quinta-feira

    Tempo Temperatura Precipitação Vento Pressão Humidade
    00:00 +7°C° 0 mm 5 m/s 756 mmHg 88%
    01:00 +7°C° 0 mm 4 m/s 755 mmHg 90%
    02:00 +7°C° 0 mm 4 m/s 755 mmHg 92%
    03:00 +7°C° 0 mm 4 m/s 755 mmHg 92%
    04:00 +7°C° 0 mm 4 m/s 754 mmHg 92%
    05:00 +7°C° 0 mm 4 m/s 754 mmHg 93%
    06:00 +7°C° 0.1 mm 4 m/s 754 mmHg 92%
    07:00 +8°C° 0.1 mm 3 m/s 755 mmHg 92%
    08:00 +8°C° 0.1 mm 3 m/s 755 mmHg 91%
    09:00 +9°C° 0.3 mm 3 m/s 755 mmHg 88%
    10:00 +10°C° 0.3 mm 3 m/s 755 mmHg 86%
    11:00 +12°C° 0.3 mm 2 m/s 755 mmHg 83%
    12:00 +12°C° 0.3 mm 2 m/s 755 mmHg 79%
    13:00 +13°C° 0.3 mm 2 m/s 754 mmHg 75%
    14:00 +14°C° 0.3 mm 1 m/s 754 mmHg 71%
    15:00 +12°C° 0.4 mm 1 m/s 754 mmHg 76%
    16:00 +11°C° 0.4 mm 1 m/s 754 mmHg 81%
    17:00 +10°C° 0.4 mm 1 m/s 754 mmHg 86%
    18:00 +10°C° 0.1 mm 1 m/s 755 mmHg 87%
    19:00 +9°C° 0.1 mm 1 m/s 755 mmHg 88%
    20:00 +9°C° 0.1 mm 1 m/s 755 mmHg 89%
    21:00 +9°C° 0 mm 1 m/s 755 mmHg 88%
    22:00 +9°C° 0 mm 1 m/s 756 mmHg 88%
    23:00 +8°C° 0 mm 2 m/s 756 mmHg 88%

    24 Janeiro, Sexta-feira

    Tempo Temperatura Precipitação Vento Pressão Humidade
    00:00 +8°C° 0 mm 2 m/s 756 mmHg 88%
    01:00 +7°C° 0 mm 2 m/s 756 mmHg 89%
    02:00 +7°C° 0 mm 2 m/s 756 mmHg 89%
    03:00 +7°C° 0 mm 2 m/s 756 mmHg 90%
    04:00 +7°C° 0 mm 2 m/s 756 mmHg 91%
    05:00 +7°C° 0 mm 2 m/s 756 mmHg 91%
    06:00 +7°C° 0.1 mm 2 m/s 757 mmHg 91%
    07:00 +8°C° 0.1 mm 3 m/s 757 mmHg 91%
    08:00 +8°C° 0.1 mm 3 m/s 758 mmHg 90%
    09:00 +10°C° 0.1 mm 3 m/s 758 mmHg 86%
    10:00 +11°C° 0.1 mm 3 m/s 758 mmHg 81%
    11:00 +12°C° 0.1 mm 4 m/s 758 mmHg 77%
    12:00 +13°C° 0 mm 4 m/s 758 mmHg 72%
    13:00 +13°C° 0 mm 3 m/s 758 mmHg 68%
    14:00 +14°C° 0 mm 3 m/s 757 mmHg 63%
    15:00 +13°C° 0 mm 3 m/s 758 mmHg 67%
    16:00 +13°C° 0 mm 2 m/s 758 mmHg 71%
    17:00 +12°C° 0 mm 2 m/s 758 mmHg 75%
    18:00 +10°C° 0 mm 2 m/s 758 mmHg 78%
    19:00 +10°C° 0 mm 3 m/s 759 mmHg 82%
    20:00 +9°C° 0 mm 3 m/s 759 mmHg 85%
    21:00 +9°C° 0 mm 3 m/s 759 mmHg 86%
    22:00 +9°C° 0 mm 3 m/s 760 mmHg 86%
    23:00 +8°C° 0 mm 3 m/s 760 mmHg 87%
    Mostrar mais